Photometre #385[Polarized_P] OHP_OBSERVATOIRE AOT

File : 20190923_385.hum

23/09/2019,06:14:35,TEMP=17.5,BA=5.20,STAT.h
23/09/2019,06:18:09,TEMP=17.5,BA=5.20,STAT.h
23/09/2019,06:22:20,TEMP=17.5,BA=5.20,STAT.h
23/09/2019,06:27:18,TEMP=17.5,BA=5.20,STAT.h
23/09/2019,06:33:18,TEMP=17.5,BA=5.20,STAT.h
23/09/2019,06:40:41,TEMP=17.5,BA=5.20,STAT.h
23/09/2019,06:50:01,TEMP=17.5,BA=5.20,STAT.h
23/09/2019,06:54:30,TEMP=17.5,BA=5.20,STAT.h
23/09/2019,06:59:30,TEMP=17.5,BA=5.20,STAT.h
23/09/2019,07:05:10,TEMP=17.5,BA=5.20,STAT.h
23/09/2019,07:11:36,TEMP=17.5,BA=5.20,STAT.h
23/09/2019,07:18:59,TEMP=17.5,BA=5.20,STAT.h
23/09/2019,07:27:36,TEMP=17.5,BA=5.20,STAT.h
23/09/2019,07:37:46,TEMP=17.5,BA=5.20,STAT.h
23/09/2019,07:50:00,TEMP=17.5,BA=5.20,STAT.h
23/09/2019,08:05:05,TEMP=17.5,BA=5.20,STAT.h
23/09/2019,08:24:19,TEMP=17.5,BA=5.20,STAT.h
23/09/2019,08:29:55,TEMP=17.5,BA=5.20,STAT.h
23/09/2019,08:44:55,TEMP=17.5,BA=5.20,STAT.h
23/09/2019,08:59:55,TEMP=17.5,BA=5.20,STAT.h
23/09/2019,09:14:55,TEMP=17.5,BA=5.20,STAT.h
23/09/2019,09:29:55,TEMP=17.5,BA=5.20,STAT.h
23/09/2019,09:44:55,TEMP=17.5,BA=5.20,STAT.h
23/09/2019,09:59:55,TEMP=17.5,BA=5.20,STAT.h
23/09/2019,10:15:16,TEMP=21.9,BA=5.20,STAT.D=9.0,ExtBa=12.71
23/09/2019,10:30:18,TEMP=21.4,BA=5.16,STAT.F
23/09/2019,10:45:16,TEMP=20.8,BA=5.12,STAT.D=8.5,ExtBa=12.69
23/09/2019,11:00:16,TEMP=19.8,BA=5.16,STAT.D=9.0,ExtBa=12.72
23/09/2019,11:15:16,TEMP=20.9,BA=5.20,STAT.D=9.0,ExtBa=12.72
23/09/2019,11:30:18,TEMP=21.3,BA=5.16,STAT.F
23/09/2019,11:45:09,TEMP=22.6,BA=5.12,STAT.b=9.0
23/09/2019,12:00:16,TEMP=22.3,BA=5.16,STAT.D=9.0,ExtBa=12.72
23/09/2019,12:15:16,TEMP=22.3,BA=5.20,STAT.D=9.0,ExtBa=12.72
23/09/2019,12:30:18,TEMP=22.8,BA=5.16,STAT.F
23/09/2019,12:45:16,TEMP=23.6,BA=5.12,STAT.D=9.0,ExtBa=12.69
23/09/2019,13:00:16,TEMP=23.6,BA=5.16,STAT.D=9.0,ExtBa=12.71
23/09/2019,13:15:16,TEMP=23.6,BA=5.20,STAT.D=9.0,ExtBa=12.71
23/09/2019,13:30:18,TEMP=22.5,BA=5.16,STAT.F
23/09/2019,13:45:16,TEMP=23.3,BA=5.12,STAT.D=9.0,ExtBa=12.69
23/09/2019,14:00:16,TEMP=23.5,BA=5.16,STAT.D=9.0,ExtBa=12.71
23/09/2019,14:15:16,TEMP=21.9,BA=5.20,STAT.D=9.0,ExtBa=12.71
23/09/2019,14:30:17,TEMP=21.5,BA=5.16,STAT.F
23/09/2019,14:43:16,TEMP=22.4,BA=5.12,STAT.B=8.5,ExtBa=12.65
23/09/2019,14:55:07,TEMP=21.9,BA=5.16,STAT.A=9.0,ExtBa=12.69
23/09/2019,15:10:12,TEMP=21.1,BA=5.12,STAT.A=9.0,ExtBa=12.70
23/09/2019,15:22:26,TEMP=20.4,BA=5.16,STAT.A=9.0,ExtBa=12.70
23/09/2019,15:32:36,TEMP=19.5,BA=5.16,STAT.A=9.0,ExtBa=12.70
23/09/2019,15:41:13,TEMP=18.9,BA=5.16,STAT.C=9.0,ExtBa=12.69
23/09/2019,15:48:36,TEMP=18.6,BA=5.16,STAT.A=9.0,ExtBa=12.69
23/09/2019,15:55:02,TEMP=18.3,BA=5.12,STAT.A=9.0,ExtBa=12.69
23/09/2019,16:00:42,TEMP=18.1,BA=5.16,STAT.A=9.0,ExtBa=12.68
23/09/2019,16:05:42,TEMP=17.9,BA=5.16,STAT.A=9.0,ExtBa=12.68
23/09/2019,16:10:11,TEMP=17.9,BA=5.12,STAT.B=9.0,ExtBa=12.67
23/09/2019,16:19:31,TEMP=18.2,BA=5.12,STAT.A=9.0,ExtBa=12.67
23/09/2019,16:26:54,TEMP=18.7,BA=5.12,STAT.A=8.5,ExtBa=12.68
23/09/2019,16:32:53,TEMP=18.8,BA=5.16,STAT.A=8.5,ExtBa=12.67
23/09/2019,16:39:34,TEMP=18.7,BA=5.16,STAT.A=8.5,ExtBa=12.67
23/09/2019,16:42:02,TEMP=18.8,BA=5.12,STAT.A=8.5,ExtBa=12.64
23/09/2019,16:45:36,TEMP=18.6,BA=5.12,STAT.A=8.5,ExtBa=12.65